#datetime,building,power
2024-04-18T00:00:00,rvs,22.82
2024-04-18T00:01:00,rvs,22.56
2024-04-18T00:02:00,rvs,25.45
2024-04-18T00:03:00,rvs,25.02
2024-04-18T00:04:00,rvs,26.25
2024-04-18T00:05:00,rvs,26.02
2024-04-18T00:06:00,rvs,25.58
2024-04-18T00:07:00,rvs,20.92
2024-04-18T00:08:00,rvs,21.22
2024-04-18T00:09:00,rvs,23.97
2024-04-18T00:10:00,rvs,27.55
2024-04-18T00:11:00,rvs,28.84
2024-04-18T00:12:00,rvs,27.85
2024-04-18T00:13:00,rvs,25.97
2024-04-18T00:14:00,rvs,26.00
2024-04-18T00:15:00,rvs,27.32
2024-04-18T00:16:00,rvs,31.02
2024-04-18T00:17:00,rvs,26.95
2024-04-18T00:18:00,rvs,32.94
2024-04-18T00:19:00,rvs,34.33
2024-04-18T00:20:00,rvs,33.53
2024-04-18T00:21:00,rvs,31.58
2024-04-18T00:22:00,rvs,39.51
2024-04-18T00:23:00,rvs,41.76
2024-04-18T00:24:00,rvs,50.04
2024-04-18T00:25:00,rvs,34.32
2024-04-18T00:26:00,rvs,48.50
2024-04-18T00:27:00,rvs,43.57
2024-04-18T00:28:00,rvs,25.50
2024-04-18T00:29:00,rvs,27.37
2024-04-18T00:30:00,rvs,27.56
2024-04-18T00:31:00,rvs,27.95
2024-04-18T00:32:00,rvs,29.42
2024-04-18T00:33:00,rvs,29.67
2024-04-18T00:34:00,rvs,29.28
2024-04-18T00:35:00,rvs,29.28
2024-04-18T00:36:00,rvs,24.60
2024-04-18T00:37:00,rvs,24.21
2024-04-18T00:38:00,rvs,23.58
2024-04-18T00:39:00,rvs,21.06
2024-04-18T00:40:00,rvs,25.89
2024-04-18T00:41:00,rvs,25.54
2024-04-18T00:42:00,rvs,25.12
2024-04-18T00:43:00,rvs,25.01
2024-04-18T00:44:00,rvs,20.46
2024-04-18T00:45:00,rvs,20.23
2024-04-18T00:46:00,rvs,20.12
2024-04-18T00:47:00,rvs,20.27
2024-04-18T00:48:00,rvs,16.02
2024-04-18T00:49:00,rvs,12.04
2024-04-18T00:50:00,rvs,19.24
2024-04-18T00:51:00,rvs,24.54
2024-04-18T00:52:00,rvs,23.36
2024-04-18T00:53:00,rvs,21.34
2024-04-18T00:54:00,rvs,20.56
2024-04-18T00:55:00,rvs,27.32
2024-04-18T00:56:00,rvs,25.09
2024-04-18T00:57:00,rvs,11.31
2024-04-18T00:58:00,rvs,10.93
2024-04-18T00:59:00,rvs,14.95
2024-04-18T01:00:00,rvs,15.08
2024-04-18T01:01:00,rvs,15.18
2024-04-18T01:02:00,rvs,11.12
2024-04-18T01:03:00,rvs,14.79
2024-04-18T01:04:00,rvs,14.63
2024-04-18T01:05:00,rvs,10.46
2024-04-18T01:06:00,rvs,14.99
2024-04-18T01:07:00,rvs,19.09
2024-04-18T01:08:00,rvs,14.89
2024-04-18T01:09:00,rvs,10.84
2024-04-18T01:10:00,rvs,10.79
2024-04-18T01:11:00,rvs,10.73
2024-04-18T01:12:00,rvs,14.83
2024-04-18T01:13:00,rvs,14.84
2024-04-18T01:14:00,rvs,10.75
2024-04-18T01:15:00,rvs,10.75
2024-04-18T01:16:00,rvs,14.82
2024-04-18T01:17:00,rvs,10.88
2024-04-18T01:18:00,rvs,14.80
2024-04-18T01:19:00,rvs,14.87
2024-04-18T01:20:00,rvs,15.53
2024-04-18T01:21:00,rvs,15.50
2024-04-18T01:22:00,rvs,15.49
2024-04-18T01:23:00,rvs,15.80
2024-04-18T01:24:00,rvs,11.59
2024-04-18T01:25:00,rvs,10.99
2024-04-18T01:26:00,rvs,10.82
2024-04-18T01:27:00,rvs,10.82
2024-04-18T01:28:00,rvs,10.88
2024-04-18T01:29:00,rvs,12.68
2024-04-18T01:30:00,rvs,12.57
2024-04-18T01:31:00,rvs,11.29
2024-04-18T01:32:00,rvs,10.50
2024-04-18T01:33:00,rvs,28.97
2024-04-18T01:34:00,rvs,11.95
2024-04-18T01:35:00,rvs,18.46
2024-04-18T01:36:00,rvs,21.34
2024-04-18T01:37:00,rvs,23.37
2024-04-18T01:38:00,rvs,24.65
2024-04-18T01:39:00,rvs,23.21
2024-04-18T01:40:00,rvs,24.63
2024-04-18T01:41:00,rvs,24.15
2024-04-18T01:42:00,rvs,25.54
2024-04-18T01:43:00,rvs,27.26
2024-04-18T01:44:00,rvs,26.96
2024-04-18T01:45:00,rvs,11.00
2024-04-18T01:46:00,rvs,11.00
2024-04-18T01:47:00,rvs,10.82
2024-04-18T01:48:00,rvs,10.54
2024-04-18T01:49:00,rvs,10.41
2024-04-18T01:50:00,rvs,10.55
2024-04-18T01:51:00,rvs,10.50
2024-04-18T01:52:00,rvs,10.41
2024-04-18T01:53:00,rvs,10.33
2024-04-18T01:54:00,rvs,10.09
2024-04-18T01:55:00,rvs,10.74
2024-04-18T01:56:00,rvs,10.34
2024-04-18T01:57:00,rvs,10.51
2024-04-18T01:58:00,rvs,10.19
2024-04-18T01:59:00,rvs,10.15
2024-04-18T02:00:00,rvs,9.49
2024-04-18T02:01:00,rvs,9.58
2024-04-18T02:02:00,rvs,9.37
2024-04-18T02:03:00,rvs,9.37
2024-04-18T02:04:00,rvs,9.36
2024-04-18T02:05:00,rvs,9.35
2024-04-18T02:06:00,rvs,9.21
2024-04-18T02:07:00,rvs,9.43
2024-04-18T02:08:00,rvs,9.32
2024-04-18T02:09:00,rvs,9.44
2024-04-18T02:10:00,rvs,9.33
2024-04-18T02:11:00,rvs,9.39
2024-04-18T02:12:00,rvs,9.51
2024-04-18T02:13:00,rvs,9.41
2024-04-18T02:14:00,rvs,9.33
2024-04-18T02:15:00,rvs,9.18
2024-04-18T02:16:00,rvs,9.06
2024-04-18T02:17:00,rvs,9.73
2024-04-18T02:18:00,rvs,9.44
2024-04-18T02:19:00,rvs,9.41
2024-04-18T02:20:00,rvs,9.54
2024-04-18T02:21:00,rvs,9.52
2024-04-18T02:22:00,rvs,11.88
2024-04-18T02:23:00,rvs,13.63
2024-04-18T02:24:00,rvs,14.62
2024-04-18T02:25:00,rvs,15.36
2024-04-18T02:26:00,rvs,17.58
2024-04-18T02:27:00,rvs,16.20
2024-04-18T02:28:00,rvs,20.22
2024-04-18T02:29:00,rvs,20.56
2024-04-18T02:30:00,rvs,26.69
2024-04-18T02:31:00,rvs,26.10
2024-04-18T02:32:00,rvs,26.37
2024-04-18T02:33:00,rvs,25.06
2024-04-18T02:34:00,rvs,19.43
2024-04-18T02:35:00,rvs,28.82
2024-04-18T02:36:00,rvs,46.87
2024-04-18T02:37:00,rvs,52.09
2024-04-18T02:38:00,rvs,55.46
2024-04-18T02:39:00,rvs,52.64
2024-04-18T02:40:00,rvs,43.91
2024-04-18T02:41:00,rvs,35.01
2024-04-18T02:42:00,rvs,22.40
2024-04-18T02:43:00,rvs,21.84
2024-04-18T02:44:00,rvs,21.19
2024-04-18T02:45:00,rvs,22.10
2024-04-18T02:46:00,rvs,26.20
2024-04-18T02:47:00,rvs,27.40
2024-04-18T02:48:00,rvs,27.85
2024-04-18T02:49:00,rvs,33.56
2024-04-18T02:50:00,rvs,34.43
2024-04-18T02:51:00,rvs,36.15
2024-04-18T02:52:00,rvs,31.28
2024-04-18T02:53:00,rvs,24.47
2024-04-18T02:54:00,rvs,15.49
2024-04-18T02:55:00,rvs,15.54
2024-04-18T02:56:00,rvs,15.69
2024-04-18T02:57:00,rvs,15.42
2024-04-18T02:58:00,rvs,15.87
2024-04-18T02:59:00,rvs,10.00
2024-04-18T03:00:00,rvs,10.05
2024-04-18T03:01:00,rvs,10.12
2024-04-18T03:02:00,rvs,9.93
2024-04-18T03:03:00,rvs,9.77
2024-04-18T03:04:00,rvs,9.84
2024-04-18T03:05:00,rvs,9.94
2024-04-18T03:06:00,rvs,10.51
2024-04-18T03:07:00,rvs,10.50
2024-04-18T03:08:00,rvs,10.41
2024-04-18T03:09:00,rvs,10.30
2024-04-18T03:10:00,rvs,10.27
2024-04-18T03:11:00,rvs,10.08
2024-04-18T03:12:00,rvs,9.95
2024-04-18T03:13:00,rvs,9.91
2024-04-18T03:14:00,rvs,9.36
2024-04-18T03:15:00,rvs,9.39
2024-04-18T03:16:00,rvs,9.46
2024-04-18T03:17:00,rvs,9.49
2024-04-18T03:18:00,rvs,9.43
2024-04-18T03:19:00,rvs,9.53
2024-04-18T03:20:00,rvs,9.75
2024-04-18T03:21:00,rvs,9.25
2024-04-18T03:22:00,rvs,9.28
2024-04-18T03:23:00,rvs,9.45
2024-04-18T03:24:00,rvs,9.42
2024-04-18T03:25:00,rvs,9.44
2024-04-18T03:26:00,rvs,9.41
2024-04-18T03:27:00,rvs,9.46
2024-04-18T03:28:00,rvs,9.21
2024-04-18T03:29:00,rvs,9.16
2024-04-18T03:30:00,rvs,10.64
2024-04-18T03:31:00,rvs,13.29
2024-04-18T03:32:00,rvs,14.14
2024-04-18T03:33:00,rvs,15.23
2024-04-18T03:34:00,rvs,18.04
2024-04-18T03:35:00,rvs,16.41
2024-04-18T03:36:00,rvs,15.81
2024-04-18T03:37:00,rvs,14.78
2024-04-18T03:38:00,rvs,15.11
2024-04-18T03:39:00,rvs,14.90
2024-04-18T03:40:00,rvs,14.59
2024-04-18T03:41:00,rvs,9.17
2024-04-18T03:42:00,rvs,13.75
2024-04-18T03:43:00,rvs,13.67
2024-04-18T03:44:00,rvs,13.79
2024-04-18T03:45:00,rvs,13.74
2024-04-18T03:46:00,rvs,9.21
2024-04-18T03:47:00,rvs,9.21
2024-04-18T03:48:00,rvs,9.29
2024-04-18T03:49:00,rvs,9.42
2024-04-18T03:50:00,rvs,9.41
2024-04-18T03:51:00,rvs,9.39
2024-04-18T03:52:00,rvs,10.03
2024-04-18T03:53:00,rvs,13.58
2024-04-18T03:54:00,rvs,14.26
2024-04-18T03:55:00,rvs,15.11
2024-04-18T03:56:00,rvs,16.71
2024-04-18T03:57:00,rvs,16.58
2024-04-18T03:58:00,rvs,20.48
2024-04-18T03:59:00,rvs,19.82
2024-04-18T04:00:00,rvs,18.48
2024-04-18T04:01:00,rvs,18.27
2024-04-18T04:02:00,rvs,17.77
2024-04-18T04:03:00,rvs,20.09
2024-04-18T04:04:00,rvs,19.87
2024-04-18T04:05:00,rvs,20.22
2024-04-18T04:06:00,rvs,20.74
2024-04-18T04:07:00,rvs,19.78
2024-04-18T04:08:00,rvs,19.49
2024-04-18T04:09:00,rvs,21.53
2024-04-18T04:10:00,rvs,16.02
2024-04-18T04:11:00,rvs,14.52
2024-04-18T04:12:00,rvs,14.63
2024-04-18T04:13:00,rvs,14.25
2024-04-18T04:14:00,rvs,13.46
2024-04-18T04:15:00,rvs,12.89
2024-04-18T04:16:00,rvs,14.68
2024-04-18T04:17:00,rvs,16.14
2024-04-18T04:18:00,rvs,15.71
2024-04-18T04:19:00,rvs,13.08
2024-04-18T04:20:00,rvs,13.47
2024-04-18T04:21:00,rvs,14.15
2024-04-18T04:22:00,rvs,13.92
2024-04-18T04:23:00,rvs,14.85
2024-04-18T04:24:00,rvs,16.05
2024-04-18T04:25:00,rvs,9.16
2024-04-18T04:26:00,rvs,9.16
2024-04-18T04:27:00,rvs,9.20
2024-04-18T04:28:00,rvs,9.01
2024-04-18T04:29:00,rvs,9.03
2024-04-18T04:30:00,rvs,9.33
2024-04-18T04:31:00,rvs,12.67
2024-04-18T04:32:00,rvs,13.43
2024-04-18T04:33:00,rvs,14.78
2024-04-18T04:34:00,rvs,15.79
2024-04-18T04:35:00,rvs,15.04
2024-04-18T04:36:00,rvs,13.31
2024-04-18T04:37:00,rvs,12.55
2024-04-18T04:38:00,rvs,13.36
2024-04-18T04:39:00,rvs,13.37
2024-04-18T04:40:00,rvs,13.28
2024-04-18T04:41:00,rvs,13.43
2024-04-18T04:42:00,rvs,8.00
2024-04-18T04:43:00,rvs,8.03
2024-04-18T04:44:00,rvs,8.16
2024-04-18T04:45:00,rvs,8.08
2024-04-18T04:46:00,rvs,8.36
2024-04-18T04:47:00,rvs,11.16
2024-04-18T04:48:00,rvs,12.26
2024-04-18T04:49:00,rvs,13.14
2024-04-18T04:50:00,rvs,15.35
2024-04-18T04:51:00,rvs,15.26
2024-04-18T04:52:00,rvs,15.54
2024-04-18T04:53:00,rvs,17.59
2024-04-18T04:54:00,rvs,22.90
2024-04-18T04:55:00,rvs,24.89
2024-04-18T04:56:00,rvs,25.06
2024-04-18T04:57:00,rvs,21.23
2024-04-18T04:58:00,rvs,22.57
2024-04-18T04:59:00,rvs,25.41
2024-04-18T05:00:00,rvs,22.64
2024-04-18T05:01:00,rvs,25.36
2024-04-18T05:02:00,rvs,14.67
2024-04-18T05:03:00,rvs,8.39
2024-04-18T05:04:00,rvs,8.34
2024-04-18T05:05:00,rvs,8.43
2024-04-18T05:06:00,rvs,8.66
2024-04-18T05:07:00,rvs,8.80
2024-04-18T05:08:00,rvs,8.83
2024-04-18T05:09:00,rvs,8.84
2024-04-18T05:10:00,rvs,8.79
2024-04-18T05:11:00,rvs,8.92
2024-04-18T05:12:00,rvs,8.72
2024-04-18T05:13:00,rvs,8.61
2024-04-18T05:14:00,rvs,8.58
2024-04-18T05:15:00,rvs,8.81
2024-04-18T05:16:00,rvs,8.72
2024-04-18T05:17:00,rvs,8.51
2024-04-18T05:18:00,rvs,8.44
2024-04-18T05:19:00,rvs,8.41
2024-04-18T05:20:00,rvs,11.29
2024-04-18T05:21:00,rvs,12.52
2024-04-18T05:22:00,rvs,12.77
2024-04-18T05:23:00,rvs,12.98
2024-04-18T05:24:00,rvs,13.51
2024-04-18T05:25:00,rvs,12.23
2024-04-18T05:26:00,rvs,13.47
2024-04-18T05:27:00,rvs,8.44
2024-04-18T05:28:00,rvs,8.26
2024-04-18T05:29:00,rvs,8.21
2024-04-18T05:30:00,rvs,8.06
2024-04-18T05:31:00,rvs,7.91
2024-04-18T05:32:00,rvs,7.78
2024-04-18T05:33:00,rvs,8.55
2024-04-18T05:34:00,rvs,12.16
2024-04-18T05:35:00,rvs,13.42
2024-04-18T05:36:00,rvs,14.05
2024-04-18T05:37:00,rvs,13.99
2024-04-18T05:38:00,rvs,12.70
2024-04-18T05:39:00,rvs,11.94
2024-04-18T05:40:00,rvs,12.27
2024-04-18T05:41:00,rvs,12.73
2024-04-18T05:42:00,rvs,12.44
2024-04-18T05:43:00,rvs,12.17
2024-04-18T05:44:00,rvs,7.61
2024-04-18T05:45:00,rvs,7.59
2024-04-18T05:46:00,rvs,7.72
2024-04-18T05:47:00,rvs,7.73
2024-04-18T05:48:00,rvs,7.83
2024-04-18T05:49:00,rvs,10.84
2024-04-18T05:50:00,rvs,12.29
2024-04-18T05:51:00,rvs,13.55
2024-04-18T05:52:00,rvs,14.41
2024-04-18T05:53:00,rvs,15.24
2024-04-18T05:54:00,rvs,14.27
2024-04-18T05:55:00,rvs,13.44
2024-04-18T05:56:00,rvs,13.31
2024-04-18T05:57:00,rvs,13.26
2024-04-18T05:58:00,rvs,26.65
2024-04-18T05:59:00,rvs,27.25
2024-04-18T06:00:00,rvs,28.05
2024-04-18T06:01:00,rvs,17.83
2024-04-18T06:02:00,rvs,19.67
2024-04-18T06:03:00,rvs,21.01
2024-04-18T06:04:00,rvs,22.40
2024-04-18T06:05:00,rvs,26.86
2024-04-18T06:06:00,rvs,27.37
2024-04-18T06:07:00,rvs,23.53
2024-04-18T06:08:00,rvs,24.35
2024-04-18T06:09:00,rvs,21.90
2024-04-18T06:10:00,rvs,21.93
2024-04-18T06:11:00,rvs,18.26
2024-04-18T06:12:00,rvs,19.57
2024-04-18T06:13:00,rvs,19.32
2024-04-18T06:14:00,rvs,18.72
2024-04-18T06:15:00,rvs,18.34
2024-04-18T06:16:00,rvs,18.24
2024-04-18T06:17:00,rvs,17.45
2024-04-18T06:18:00,rvs,16.86
2024-04-18T06:19:00,rvs,17.20
2024-04-18T06:20:00,rvs,20.18
2024-04-18T06:21:00,rvs,20.93
2024-04-18T06:22:00,rvs,22.54
2024-04-18T06:23:00,rvs,14.34
2024-04-18T06:24:00,rvs,14.10
2024-04-18T06:25:00,rvs,13.42
2024-04-18T06:26:00,rvs,12.53
2024-04-18T06:27:00,rvs,12.43
2024-04-18T06:28:00,rvs,12.43
2024-04-18T06:29:00,rvs,12.65
2024-04-18T06:30:00,rvs,12.65
2024-04-18T06:31:00,rvs,15.66
2024-04-18T06:32:00,rvs,17.57
2024-04-18T06:33:00,rvs,18.74
2024-04-18T06:34:00,rvs,18.21
2024-04-18T06:35:00,rvs,17.62
2024-04-18T06:36:00,rvs,16.98
2024-04-18T06:37:00,rvs,17.06
2024-04-18T06:38:00,rvs,25.24
2024-04-18T06:39:00,rvs,26.22
2024-04-18T06:40:00,rvs,26.70
2024-04-18T06:41:00,rvs,27.27
2024-04-18T06:42:00,rvs,12.99
2024-04-18T06:43:00,rvs,12.70
2024-04-18T06:44:00,rvs,13.88
2024-04-18T06:45:00,rvs,14.41
2024-04-18T06:46:00,rvs,14.39
2024-04-18T06:47:00,rvs,14.14
2024-04-18T06:48:00,rvs,14.33
2024-04-18T06:49:00,rvs,8.74
2024-04-18T06:50:00,rvs,8.53
2024-04-18T06:51:00,rvs,11.46
2024-04-18T06:52:00,rvs,12.67
2024-04-18T06:53:00,rvs,13.39
2024-04-18T06:54:00,rvs,15.87
2024-04-18T06:55:00,rvs,15.87
2024-04-18T06:56:00,rvs,16.21
2024-04-18T06:57:00,rvs,14.54
2024-04-18T06:58:00,rvs,17.41
2024-04-18T06:59:00,rvs,18.05
2024-04-18T07:00:00,rvs,19.22
2024-04-18T07:01:00,rvs,20.25
2024-04-18T07:02:00,rvs,20.06
2024-04-18T07:03:00,rvs,18.28
2024-04-18T07:04:00,rvs,16.90
2024-04-18T07:05:00,rvs,12.76
2024-04-18T07:06:00,rvs,13.63
2024-04-18T07:07:00,rvs,14.10
2024-04-18T07:08:00,rvs,13.74
2024-04-18T07:09:00,rvs,13.55
2024-04-18T07:10:00,rvs,13.73
2024-04-18T07:11:00,rvs,20.66
2024-04-18T07:12:00,rvs,21.31
2024-04-18T07:13:00,rvs,21.75
2024-04-18T07:14:00,rvs,22.09
2024-04-18T07:15:00,rvs,11.86
2024-04-18T07:16:00,rvs,11.90
2024-04-18T07:17:00,rvs,14.19
2024-04-18T07:18:00,rvs,12.82
2024-04-18T07:19:00,rvs,11.96
2024-04-18T07:20:00,rvs,11.71
2024-04-18T07:21:00,rvs,12.77
2024-04-18T07:22:00,rvs,14.86
2024-04-18T07:23:00,rvs,13.85
2024-04-18T07:24:00,rvs,13.35
2024-04-18T07:25:00,rvs,13.81
2024-04-18T07:26:00,rvs,7.76
2024-04-18T07:27:00,rvs,7.83
2024-04-18T07:28:00,rvs,8.22
2024-04-18T07:29:00,rvs,8.31
2024-04-18T07:30:00,rvs,9.02
2024-04-18T07:31:00,rvs,8.96
2024-04-18T07:32:00,rvs,8.92
2024-04-18T07:33:00,rvs,8.87
2024-04-18T07:34:00,rvs,8.90
2024-04-18T07:35:00,rvs,8.68
2024-04-18T07:36:00,rvs,8.71
2024-04-18T07:37:00,rvs,8.56
2024-04-18T07:38:00,rvs,8.55
2024-04-18T07:39:00,rvs,8.72
2024-04-18T07:40:00,rvs,9.54
2024-04-18T07:41:00,rvs,11.10
2024-04-18T07:42:00,rvs,10.47
2024-04-18T07:43:00,rvs,9.93
2024-04-18T07:44:00,rvs,8.63
2024-04-18T07:45:00,rvs,8.70
2024-04-18T07:46:00,rvs,8.41
2024-04-18T07:47:00,rvs,7.88
2024-04-18T07:48:00,rvs,7.92
2024-04-18T07:49:00,rvs,7.85
2024-04-18T07:50:00,rvs,7.93
2024-04-18T07:51:00,rvs,8.48
2024-04-18T07:52:00,rvs,7.96
2024-04-18T07:53:00,rvs,9.33
2024-04-18T07:54:00,rvs,9.15
2024-04-18T07:55:00,rvs,9.06
2024-04-18T07:56:00,rvs,8.78
2024-04-18T07:57:00,rvs,7.46
2024-04-18T07:58:00,rvs,7.51
2024-04-18T07:59:00,rvs,7.54
2024-04-18T08:00:00,rvs,7.61
2024-04-18T08:01:00,rvs,7.67
2024-04-18T08:02:00,rvs,7.90
2024-04-18T08:03:00,rvs,7.81
2024-04-18T08:04:00,rvs,8.02
2024-04-18T08:05:00,rvs,8.11
2024-04-18T08:06:00,rvs,8.17
2024-04-18T08:07:00,rvs,7.93
2024-04-18T08:08:00,rvs,8.95
2024-04-18T08:09:00,rvs,13.04
2024-04-18T08:10:00,rvs,13.35
2024-04-18T08:11:00,rvs,14.81
2024-04-18T08:12:00,rvs,15.09
2024-04-18T08:13:00,rvs,13.82
2024-04-18T08:14:00,rvs,13.48
2024-04-18T08:15:00,rvs,13.77
2024-04-18T08:16:00,rvs,14.50
2024-04-18T08:17:00,rvs,14.04
2024-04-18T08:18:00,rvs,14.00
2024-04-18T08:19:00,rvs,13.89
2024-04-18T08:20:00,rvs,9.45
2024-04-18T08:21:00,rvs,10.21
2024-04-18T08:22:00,rvs,8.66
2024-04-18T08:23:00,rvs,12.79
2024-04-18T08:24:00,rvs,14.03
2024-04-18T08:25:00,rvs,15.00
2024-04-18T08:26:00,rvs,15.92
2024-04-18T08:27:00,rvs,21.13
2024-04-18T08:28:00,rvs,23.82
2024-04-18T08:29:00,rvs,23.06
2024-04-18T08:30:00,rvs,18.84
2024-04-18T08:31:00,rvs,18.30
2024-04-18T08:32:00,rvs,17.55
2024-04-18T08:33:00,rvs,18.59
2024-04-18T08:34:00,rvs,16.64
2024-04-18T08:35:00,rvs,17.65
2024-04-18T08:36:00,rvs,17.58
2024-04-18T08:37:00,rvs,19.15
2024-04-18T08:38:00,rvs,21.90
2024-04-18T08:39:00,rvs,25.25
2024-04-18T08:40:00,rvs,22.72
2024-04-18T08:41:00,rvs,22.93
2024-04-18T08:42:00,rvs,25.14
2024-04-18T08:43:00,rvs,25.59
2024-04-18T08:44:00,rvs,20.90
2024-04-18T08:45:00,rvs,20.91
2024-04-18T08:46:00,rvs,14.11
2024-04-18T08:47:00,rvs,14.27
2024-04-18T08:48:00,rvs,14.52
2024-04-18T08:49:00,rvs,14.11
2024-04-18T08:50:00,rvs,9.78
2024-04-18T08:51:00,rvs,9.65
2024-04-18T08:52:00,rvs,8.32
2024-04-18T08:53:00,rvs,8.40
2024-04-18T08:54:00,rvs,8.43
2024-04-18T08:55:00,rvs,8.52
2024-04-18T08:56:00,rvs,9.03
2024-04-18T08:57:00,rvs,9.04
2024-04-18T08:58:00,rvs,9.42
2024-04-18T08:59:00,rvs,9.50
2024-04-18T09:00:00,rvs,9.35
2024-04-18T09:01:00,rvs,9.43
2024-04-18T09:02:00,rvs,9.19
2024-04-18T09:03:00,rvs,9.25
2024-04-18T09:04:00,rvs,9.23
2024-04-18T09:05:00,rvs,9.11
2024-04-18T09:06:00,rvs,9.68
2024-04-18T09:07:00,rvs,9.68
2024-04-18T09:08:00,rvs,9.62
2024-04-18T09:09:00,rvs,9.83
2024-04-18T09:10:00,rvs,9.93
2024-04-18T09:11:00,rvs,9.74
2024-04-18T09:12:00,rvs,9.58
2024-04-18T09:13:00,rvs,9.90
2024-04-18T09:14:00,rvs,9.86
2024-04-18T09:15:00,rvs,9.60
2024-04-18T09:16:00,rvs,9.47
2024-04-18T09:17:00,rvs,22.81
2024-04-18T09:18:00,rvs,26.83
2024-04-18T09:19:00,rvs,22.35
2024-04-18T09:20:00,rvs,24.84
2024-04-18T09:21:00,rvs,21.80
2024-04-18T09:22:00,rvs,9.20
2024-04-18T09:23:00,rvs,9.27
2024-04-18T09:24:00,rvs,9.11
2024-04-18T09:25:00,rvs,10.63
2024-04-18T09:26:00,rvs,9.64
2024-04-18T09:27:00,rvs,9.37
2024-04-18T09:28:00,rvs,9.15
2024-04-18T09:29:00,rvs,9.42
2024-04-18T09:30:00,rvs,9.19
2024-04-18T09:31:00,rvs,9.07
2024-04-18T09:32:00,rvs,9.29
2024-04-18T09:33:00,rvs,9.27
2024-04-18T09:34:00,rvs,8.91
2024-04-18T09:35:00,rvs,9.26
2024-04-18T09:36:00,rvs,8.84
2024-04-18T09:37:00,rvs,8.88
2024-04-18T09:38:00,rvs,12.31
2024-04-18T09:39:00,rvs,18.04
2024-04-18T09:40:00,rvs,19.10
2024-04-18T09:41:00,rvs,20.27
2024-04-18T09:42:00,rvs,20.16
2024-04-18T09:43:00,rvs,14.80
2024-04-18T09:44:00,rvs,16.05
2024-04-18T09:45:00,rvs,17.59
2024-04-18T09:46:00,rvs,18.20
2024-04-18T09:47:00,rvs,19.24
2024-04-18T09:48:00,rvs,21.18
2024-04-18T09:49:00,rvs,21.95
2024-04-18T09:50:00,rvs,22.36
2024-04-18T09:51:00,rvs,23.46
2024-04-18T09:52:00,rvs,25.14
2024-04-18T09:53:00,rvs,27.55
2024-04-18T09:54:00,rvs,26.47
2024-04-18T09:55:00,rvs,26.32
2024-04-18T09:56:00,rvs,28.73
2024-04-18T09:57:00,rvs,30.29
2024-04-18T09:58:00,rvs,31.29
2024-04-18T09:59:00,rvs,28.74
2024-04-18T10:00:00,rvs,28.38
2024-04-18T10:01:00,rvs,27.08
2024-04-18T10:02:00,rvs,26.79
2024-04-18T10:03:00,rvs,26.93
2024-04-18T10:04:00,rvs,26.86
2024-04-18T10:05:00,rvs,21.19
2024-04-18T10:06:00,rvs,15.49
2024-04-18T10:07:00,rvs,13.81
2024-04-18T10:08:00,rvs,13.08
2024-04-18T10:09:00,rvs,15.03
2024-04-18T10:10:00,rvs,8.48
2024-04-18T10:11:00,rvs,8.58
2024-04-18T10:12:00,rvs,8.97
2024-04-18T10:13:00,rvs,26.73
2024-04-18T10:14:00,rvs,8.89
2024-04-18T10:15:00,rvs,8.90
2024-04-18T10:16:00,rvs,8.89
2024-04-18T10:17:00,rvs,8.95
2024-04-18T10:18:00,rvs,8.87
2024-04-18T10:19:00,rvs,9.04
2024-04-18T10:20:00,rvs,9.21
2024-04-18T10:21:00,rvs,9.13
2024-04-18T10:22:00,rvs,9.18
2024-04-18T10:23:00,rvs,9.32
2024-04-18T10:24:00,rvs,9.63
2024-04-18T10:25:00,rvs,9.45
2024-04-18T10:26:00,rvs,9.90
2024-04-18T10:27:00,rvs,9.43
2024-04-18T10:28:00,rvs,9.18
2024-04-18T10:29:00,rvs,9.27
2024-04-18T10:30:00,rvs,9.30
2024-04-18T10:31:00,rvs,9.34
2024-04-18T10:32:00,rvs,9.39
2024-04-18T10:33:00,rvs,9.49
2024-04-18T10:34:00,rvs,9.32
2024-04-18T10:35:00,rvs,9.16
2024-04-18T10:36:00,rvs,9.09
2024-04-18T10:37:00,rvs,9.03
2024-04-18T10:38:00,rvs,9.09
2024-04-18T10:39:00,rvs,9.01
2024-04-18T10:40:00,rvs,8.98
2024-04-18T10:41:00,rvs,9.01
2024-04-18T10:42:00,rvs,9.27
2024-04-18T10:43:00,rvs,9.37
2024-04-18T10:44:00,rvs,9.77
2024-04-18T10:45:00,rvs,9.88
2024-04-18T10:46:00,rvs,9.77
2024-04-18T10:47:00,rvs,9.62
2024-04-18T10:48:00,rvs,9.94
2024-04-18T10:49:00,rvs,32.63
2024-04-18T10:50:00,rvs,15.20
2024-04-18T10:51:00,rvs,14.65
2024-04-18T10:52:00,rvs,14.37
2024-04-18T10:53:00,rvs,9.99
2024-04-18T10:54:00,rvs,9.95
2024-04-18T10:55:00,rvs,9.84
2024-04-18T10:56:00,rvs,9.92
2024-04-18T10:57:00,rvs,10.16
2024-04-18T10:58:00,rvs,10.57
2024-04-18T10:59:00,rvs,14.98
2024-04-18T11:00:00,rvs,10.82
2024-04-18T11:01:00,rvs,10.41
2024-04-18T11:02:00,rvs,10.12
2024-04-18T11:03:00,rvs,10.00
2024-04-18T11:04:00,rvs,12.59
2024-04-18T11:05:00,rvs,13.69
2024-04-18T11:06:00,rvs,14.20
2024-04-18T11:07:00,rvs,14.32
2024-04-18T11:08:00,rvs,12.45
2024-04-18T11:09:00,rvs,13.39
2024-04-18T11:10:00,rvs,18.00
2024-04-18T11:11:00,rvs,35.35
2024-04-18T11:12:00,rvs,23.15
2024-04-18T11:13:00,rvs,36.59
2024-04-18T11:14:00,rvs,36.70
2024-04-18T11:15:00,rvs,34.23
2024-04-18T11:16:00,rvs,9.47
2024-04-18T11:17:00,rvs,9.56
2024-04-18T11:18:00,rvs,10.19
2024-04-18T11:19:00,rvs,10.44
2024-04-18T11:20:00,rvs,10.41
2024-04-18T11:21:00,rvs,14.63
2024-04-18T11:22:00,rvs,32.86
2024-04-18T11:23:00,rvs,15.02
2024-04-18T11:24:00,rvs,15.09
2024-04-18T11:25:00,rvs,14.94
2024-04-18T11:26:00,rvs,14.71
2024-04-18T11:27:00,rvs,13.59
2024-04-18T11:28:00,rvs,16.46
2024-04-18T11:29:00,rvs,17.47
2024-04-18T11:30:00,rvs,19.01
2024-04-18T11:31:00,rvs,24.47
2024-04-18T11:32:00,rvs,26.90
2024-04-18T11:33:00,rvs,27.28
2024-04-18T11:34:00,rvs,27.61
2024-04-18T11:35:00,rvs,26.87
2024-04-18T11:36:00,rvs,26.47
2024-04-18T11:37:00,rvs,25.96
2024-04-18T11:38:00,rvs,25.43
2024-04-18T11:39:00,rvs,25.55
2024-04-18T11:40:00,rvs,25.74
2024-04-18T11:41:00,rvs,26.03
2024-04-18T11:42:00,rvs,25.79
2024-04-18T11:43:00,rvs,28.49
2024-04-18T11:44:00,rvs,29.08
2024-04-18T11:45:00,rvs,30.09
2024-04-18T11:46:00,rvs,31.89
2024-04-18T11:47:00,rvs,31.74
2024-04-18T11:48:00,rvs,29.54
2024-04-18T11:49:00,rvs,29.44
2024-04-18T11:50:00,rvs,28.68
2024-04-18T11:51:00,rvs,28.28
2024-04-18T11:52:00,rvs,28.58
2024-04-18T11:53:00,rvs,23.18
2024-04-18T11:54:00,rvs,22.75
2024-04-18T11:55:00,rvs,23.28
2024-04-18T11:56:00,rvs,27.12
2024-04-18T11:57:00,rvs,27.16
2024-04-18T11:58:00,rvs,27.59
2024-04-18T11:59:00,rvs,30.34
2024-04-18T12:00:00,rvs,34.68
2024-04-18T12:01:00,rvs,35.26
2024-04-18T12:02:00,rvs,33.38
2024-04-18T12:03:00,rvs,28.17
2024-04-18T12:04:00,rvs,24.56
2024-04-18T12:05:00,rvs,23.57
2024-04-18T12:06:00,rvs,23.27
2024-04-18T12:07:00,rvs,27.34
2024-04-18T12:08:00,rvs,29.42
2024-04-18T12:09:00,rvs,29.53
2024-04-18T12:10:00,rvs,28.72
2024-04-18T12:11:00,rvs,29.44
2024-04-18T12:12:00,rvs,29.16
2024-04-18T12:13:00,rvs,29.02
2024-04-18T12:14:00,rvs,23.51
2024-04-18T12:15:00,rvs,19.37
2024-04-18T12:16:00,rvs,19.01
2024-04-18T12:17:00,rvs,18.82
2024-04-18T12:18:00,rvs,18.61
2024-04-18T12:19:00,rvs,13.39
2024-04-18T12:20:00,rvs,31.19
2024-04-18T12:21:00,rvs,13.52
2024-04-18T12:22:00,rvs,13.66
2024-04-18T12:23:00,rvs,31.63
2024-04-18T12:24:00,rvs,14.86
2024-04-18T12:25:00,rvs,14.04
2024-04-18T12:26:00,rvs,13.75
2024-04-18T12:27:00,rvs,13.65
2024-04-18T12:28:00,rvs,13.69
2024-04-18T12:29:00,rvs,13.78
2024-04-18T12:30:00,rvs,13.74
2024-04-18T12:31:00,rvs,13.53
2024-04-18T12:32:00,rvs,16.71
2024-04-18T12:33:00,rvs,18.00
2024-04-18T12:34:00,rvs,18.81
2024-04-18T12:35:00,rvs,22.86
2024-04-18T12:36:00,rvs,24.88
2024-04-18T12:37:00,rvs,24.32
2024-04-18T12:38:00,rvs,24.64
2024-04-18T12:39:00,rvs,26.91
2024-04-18T12:40:00,rvs,35.30
2024-04-18T12:41:00,rvs,35.68
2024-04-18T12:42:00,rvs,38.21
2024-04-18T12:43:00,rvs,31.55
2024-04-18T12:44:00,rvs,26.07
2024-04-18T12:45:00,rvs,27.66
2024-04-18T12:46:00,rvs,28.42
2024-04-18T12:47:00,rvs,25.17
2024-04-18T12:48:00,rvs,22.10
2024-04-18T12:49:00,rvs,28.04
2024-04-18T12:50:00,rvs,23.35
2024-04-18T12:51:00,rvs,24.29
2024-04-18T12:52:00,rvs,25.26
2024-04-18T12:53:00,rvs,25.09
2024-04-18T12:54:00,rvs,20.81
2024-04-18T12:55:00,rvs,19.79
2024-04-18T12:56:00,rvs,14.24
2024-04-18T12:57:00,rvs,14.11
2024-04-18T12:58:00,rvs,14.88
2024-04-18T12:59:00,rvs,14.68
2024-04-18T13:00:00,rvs,14.07
2024-04-18T13:01:00,rvs,13.90
2024-04-18T13:02:00,rvs,13.35
2024-04-18T13:03:00,rvs,13.52
2024-04-18T13:04:00,rvs,14.12
2024-04-18T13:05:00,rvs,8.59
2024-04-18T13:06:00,rvs,8.72
2024-04-18T13:07:00,rvs,8.68
2024-04-18T13:08:00,rvs,10.12
2024-04-18T13:09:00,rvs,10.19
2024-04-18T13:10:00,rvs,10.65
2024-04-18T13:11:00,rvs,15.01
2024-04-18T13:12:00,rvs,13.51
2024-04-18T13:13:00,rvs,13.66
2024-04-18T13:14:00,rvs,9.10
2024-04-18T13:15:00,rvs,9.15
2024-04-18T13:16:00,rvs,9.10
2024-04-18T13:17:00,rvs,9.13
2024-04-18T13:18:00,rvs,8.97
2024-04-18T13:19:00,rvs,9.02
2024-04-18T13:20:00,rvs,10.36
2024-04-18T13:21:00,rvs,13.33
2024-04-18T13:22:00,rvs,14.38
2024-04-18T13:23:00,rvs,14.96
2024-04-18T13:24:00,rvs,17.38
2024-04-18T13:25:00,rvs,17.50